Location: Champaign/Urbana Astronomical Society Observatory
(40.0333°N, 88.2833°W)
Time: 20:51:38
(UTC-05:00)

N. Korean satellite - Visible Passes

Search period start: 24 September 2018 00:00
Search period end: 04 October 2018 00:00
Orbit: 458 x 511 km, 97.2° (Epoch: 23 September)

Date Brightness Start Highest point End Pass type
(mag) Time Alt. Az. Time Alt. Az. Time Alt. Az.
24 Sep 10.5 06:11:01 10° ENE 06:12:25 12° E 06:13:47 10° ESE visible
25 Sep 9.9 19:27:59 10° SW 19:30:11 16° W 19:32:25 10° NW visible
28 Sep 10.8 06:07:40 10° ENE 06:08:26 10° E 06:09:11 10° ESE visible
29 Sep 9.8 19:23:42 10° SW 19:26:10 18° W 19:28:40 10° NW visible
30 Sep 8.5 18:58:22 10° SSW 19:01:39 35° W 19:05:02 10° NNW visible
03 Oct 9.7 19:19:24 10° SW 19:22:05 20° W 19:24:50 10° NW visible
